This is the latest recevied weather packets stored in our database for station/object OK1FET-1. If no packets are shown the sender has not sent any weather packets the latest 10 day(s).
| Time | Temp. | Humidity | Pressure | Rain* | Wind** | Luminosity | Snow |
|---|---|---|---|---|---|---|---|
| 1788429393 | 26.11° C | 47% | 1025.8 hPa | - | - | - | - |
| 1788427566 | 26.11° C | 54% | 1026.1 hPa | - | - | - | - |
| 1788426958 | 25° C | 56% | 1026 hPa | - | - | - | - |
| 1788426349 | 24.44° C | 61% | 1026 hPa | - | - | - | - |
| 1788425742 | 23.89° C | 61% | 1026.1 hPa | - | - | - | - |
| 1788425134 | 23.89° C | 65% | 1026.1 hPa | - | - | - | - |
| 1788424526 | 22.78° C | 67% | 1026.1 hPa | - | - | - | - |
| 1788423918 | 22.78° C | 68% | 1026.1 hPa | - | - | - | - |
| 1788423311 | 23.33° C | 65% | 1026 hPa | - | - | - | - |
| 1788422703 | 22.78° C | 67% | 1026 hPa | - | - | - | - |
| 1788422095 | 23.33° C | 62% | 1026 hPa | - | - | - | - |
| 1788421486 | 23.89° C | 75% | 1026.1 hPa | - | - | - | - |
| 1788420878 | 23.33° C | 75% | 1026.2 hPa | - | - | - | - |
| 1788420270 | 23.33° C | 72% | 1026.2 hPa | - | - | - | - |
| 1788419662 | 22.78° C | 80% | 1026.2 hPa | - | - | - | - |
| 1788419054 | 22.78° C | 79% | 1026.2 hPa | - | - | - | - |
| 1788417840 | 22.22° C | 79% | 1026.1 hPa | - | - | - | - |
| 1788417233 | 21.67° C | 82% | 1026 hPa | - | - | - | - |
| 1788416626 | 21.11° C | 82% | 1026 hPa | - | - | - | - |
| 1788416020 | 20.56° C | 80% | 1026 hPa | - | - | - | - |
| 1788415413 | 20° C | 82% | 1025.9 hPa | - | - | - | - |
| 1788414808 | 19.44° C | 81% | 1025.7 hPa | - | - | - | - |
| 1788412390 | 14.44° C | 89% | 1025.7 hPa | - | - | - | - |
| 1788411182 | 12.78° C | 92% | 1025.5 hPa | - | - | - | - |
| 1788410578 | 12.78° C | 92% | 1025.5 hPa | - | - | - | - |
* Rain since midnight (hover to see other rain measurements)
** Current wind speed in m/s (hover to see current wind gust speed)